This demonstration page uses our WeatherBlox Daily Observations layout. Learn more.

Left ArrowRight Arrow

34.74481, -87.66753

Hourly Observations for June 9, 2018

Temp ( °F °C ) Dew Point ( °F °C ) Humidity (%) Winds ( mph kmh ) Pressure ( in mb ) Visibility ( mi km ) Precip ( " mm )
12:53 am 00:53 Clear 70 21.1 67 19.4 90 90 Calm 30.09 1019 10 16 0.00 0.00
1:53 am 01:53 Clear 71 21.7 67 19.4 87 87 Calm 30.08 1019 10 16 0.00 0.00
2:53 am 02:53 Clear 70 21.1 66 18.9 87 87 Calm 30.07 1018 10 16 0.00 0.00
3:53 am 03:53 Clear 68 20 66 18.9 93 93 Calm 30.06 1018 10 16 0.00 0.00
4:53 am 04:53 Clear 68 20 66 18.9 93 93 Calm 30.07 1018 10 16 0.00 0.00
5:53 am 05:53 Sunny 68 20 65 18.3 90 90 Calm 30.08 1019 10 16 0.00 0.00
6:53 am 06:53 Sunny 71 21.7 67 19.4 87 87 Calm 30.09 1019 10 16 0.00 0.00
7:53 am 07:53 Sunny 77 25 67 19.4 71 71 Calm 30.10 1019 10 16 0.00 0.00
8:53 am 08:53 Sunny 81 27.2 68 20 65 65 S 3 6 30.11 1020 10 16 0.00 0.00
9:53 am 09:53 Sunny 85 29.4 68 20 57 57 SW 3 6 30.11 1020 10 16 0.00 0.00
10:53 am 10:53 Sunny 88 31.1 68 20 52 52 W 7 11 30.10 1019 10 16 0.00 0.00
11:53 am 11:53 Sunny 90 32.2 68 20 48 48 W 8 13 30.09 1019 10 16 0.00 0.00
12:53 pm 12:53 Mostly Sunny 92 33.3 66 18.9 43 43 VRB 6 9 30.08 1019 10 16 0.00 0.00
1:53 pm 13:53 Sunny 93 33.9 63 17.2 37 37 W 6 9 30.04 1017 10 16 0.00 0.00
2:53 pm 14:53 Mostly Cloudy 92 33.3 67 19.4 44 44 VRB 5 7 30.01 1016 10 16 0.00 0.00
3:53 pm 15:53 Mostly Cloudy 92 33.3 64 17.8 40 40 WNW 8 13 29.99 1016 10 16 0.00 0.00
4:53 pm 16:53 Mostly Sunny 86 30 66 18.9 51 51 ESE 5 7 30.00 1016 10 16 0.00 0.00
5:53 pm 17:53 Sunny 88 31.1 66 18.9 48 48 Calm 30.00 1016 10 16 0.00 0.00
6:53 pm 18:53 Mostly Cloudy with Light Rain 82 27.8 73 22.8 74 74 S 9 15 30.00 1016 9 14 0.04 1.02
7:53 pm 19:53 Sunny 80 26.7 73 22.8 79 79 E 7 11 29.99 1016 10 16 0.00 0.03
8:53 pm 20:53 Clear 77 25 71 21.7 82 82 SSE 8 13 30.00 1016 10 16 0.00 0.00
9:53 pm 21:53 Clear 76 24.4 71 21.7 85 85 Calm 30.00 1016 10 16 0.00 0.00
10:53 pm 22:53 Clear 74 23.3 71 21.7 91 91 Calm 30.01 1016 10 16 0.00 0.00
11:53 pm 23:53 Partly Cloudy 74 23.3 71 21.7 91 91 Calm 30.01 1016 10 16 0.00 0.00

Powered by AerisWeather